Time,TemperatureF,DewpointF,PressureIn,WindDirection,WindDirectionDegrees,WindSpeedMPH,WindSpeedGustMPH,Humidity,HourlyPrecipIn,Conditions,Clouds,dailyrainin,SoftwareType,DateUTC
2017-05-25 00:12:00,71.6,69.0,29.84,WSW,241,4.0,-999.0,92,-99.99,,,0.00,weatherlink.com 1.10,2017-05-25 04:12:00,
2017-05-25 00:27:00,71.8,69.0,29.84,WSW,248,4.0,-999.0,92,-99.99,,,0.00,weatherlink.com 1.10,2017-05-25 04:27:00,
2017-05-25 00:42:00,71.6,69.0,29.84,WSW,241,3.0,-999.0,92,-99.99,,,0.00,weatherlink.com 1.10,2017-05-25 04:42:00,
2017-05-25 00:57:00,71.4,69.0,29.83,West,263,4.0,-999.0,93,-99.99,,,0.00,weatherlink.com 1.10,2017-05-25 04:57:00,
2017-05-25 01:12:00,71.8,70.0,29.83,West,263,5.0,-999.0,93,-99.99,,,0.00,weatherlink.com 1.10,2017-05-25 05:12:00,
2017-05-25 01:27:00,71.8,70.0,29.83,SW,232,6.0,-999.0,93,-99.99,,,0.00,weatherlink.com 1.10,2017-05-25 05:27:00,
2017-05-25 01:42:00,71.8,70.0,29.83,WSW,237,5.0,-999.0,93,-99.99,,,0.00,weatherlink.com 1.10,2017-05-25 05:42:00,
2017-05-25 01:57:00,72.1,70.0,29.83,SW,227,4.0,-999.0,94,-99.99,,,0.00,weatherlink.com 1.10,2017-05-25 05:57:00,
2017-05-25 02:12:00,72.9,71.0,29.83,WSW,240,3.0,-999.0,94,-99.99,,,0.00,weatherlink.com 1.10,2017-05-25 06:12:00,
2017-05-25 02:27:00,73.1,71.0,29.83,WSW,252,3.0,-999.0,94,-99.99,,,0.00,weatherlink.com 1.10,2017-05-25 06:27:00,
2017-05-25 02:42:00,73.2,71.0,29.83,SSW,209,4.0,-999.0,94,-99.99,,,0.00,weatherlink.com 1.10,2017-05-25 06:42:00,
2017-05-25 02:57:00,73.4,72.0,29.83,SW,236,5.0,-999.0,94,-99.99,,,0.00,weatherlink.com 1.10,2017-05-25 06:57:00,
2017-05-25 03:12:00,73.5,72.0,29.82,SW,215,5.0,-999.0,94,-99.99,,,0.00,weatherlink.com 1.10,2017-05-25 07:12:00,
2017-05-25 03:27:00,73.7,72.0,29.82,WSW,246,5.0,-999.0,94,-99.99,,,0.00,weatherlink.com 1.10,2017-05-25 07:27:00,
2017-05-25 03:42:00,74.4,73.0,29.82,SW,233,7.0,-999.0,94,-99.99,,,0.00,weatherlink.com 1.10,2017-05-25 07:42:00,
2017-05-25 03:57:00,74.8,73.0,29.82,SW,226,5.0,-999.0,94,-99.99,,,0.00,weatherlink.com 1.10,2017-05-25 07:57:00,
2017-05-25 04:12:00,74.8,73.0,29.81,SW,229,4.0,-999.0,94,-99.99,,,0.00,weatherlink.com 1.10,2017-05-25 08:12:00,
2017-05-25 04:27:00,75.0,73.0,29.81,SW,227,5.0,-999.0,94,-99.99,,,0.00,weatherlink.com 1.10,2017-05-25 08:27:00,
2017-05-25 04:42:00,74.5,73.0,29.81,SW,219,6.0,-999.0,94,-99.99,,,0.00,weatherlink.com 1.10,2017-05-25 08:42:00,
2017-05-25 04:57:00,74.6,73.0,29.81,SW,236,5.0,-999.0,95,-99.99,,,0.00,weatherlink.com 1.10,2017-05-25 08:57:00,
2017-05-25 05:12:00,74.6,73.0,29.81,WSW,242,0.0,-999.0,95,-99.99,,,0.00,weatherlink.com 1.10,2017-05-25 09:12:00,
2017-05-25 05:27:00,74.3,73.0,29.81,WSW,242,2.0,-999.0,95,-99.99,,,0.00,weatherlink.com 1.10,2017-05-25 09:27:00,
2017-05-25 05:42:00,73.8,72.0,29.81,WSW,242,2.0,-999.0,95,-99.99,,,0.00,weatherlink.com 1.10,2017-05-25 09:42:00,
2017-05-25 05:57:00,73.5,72.0,29.82,SSW,207,2.0,-999.0,95,-99.99,,,0.00,weatherlink.com 1.10,2017-05-25 09:57:00,
2017-05-25 06:12:00,73.3,72.0,29.82,SSW,210,0.0,-999.0,95,-99.99,,,0.00,weatherlink.com 1.10,2017-05-25 10:12:00,
2017-05-25 06:27:00,73.2,72.0,29.83,SSW,212,5.0,-999.0,95,-99.99,,,0.00,weatherlink.com 1.10,2017-05-25 10:27:00,
2017-05-25 06:42:00,73.3,72.0,29.83,SW,229,4.0,-999.0,95,-99.99,,,0.00,weatherlink.com 1.10,2017-05-25 10:42:00,
2017-05-25 06:57:00,73.6,72.0,29.83,SW,236,5.0,-999.0,95,-99.99,,,0.00,weatherlink.com 1.10,2017-05-25 10:57:00,
2017-05-25 07:12:00,74.2,73.0,29.83,WSW,244,5.0,-999.0,95,-99.99,,,0.00,weatherlink.com 1.10,2017-05-25 11:12:00,
2017-05-25 07:27:00,74.6,73.0,29.84,SSW,199,5.0,-999.0,94,-99.99,,,0.00,weatherlink.com 1.10,2017-05-25 11:27:00,
2017-05-25 07:43:00,74.6,73.0,29.85,SW,230,4.0,-999.0,94,-99.99,,,0.04,weatherlink.com 1.10,2017-05-25 11:43:00,
2017-05-25 07:57:00,74.4,73.0,29.85,South,182,4.0,-999.0,95,-99.99,,,0.04,weatherlink.com 1.10,2017-05-25 11:57:00,
2017-05-25 08:12:00,74.5,73.0,29.85,SSW,213,0.0,-999.0,95,-99.99,,,0.04,weatherlink.com 1.10,2017-05-25 12:12:00,
2017-05-25 08:27:00,75.3,74.0,29.85,SW,216,2.0,-999.0,95,-99.99,,,0.04,weatherlink.com 1.10,2017-05-25 12:27:00,
2017-05-25 08:42:00,76.1,74.0,29.84,SW,224,4.0,-999.0,93,-99.99,,,0.04,weatherlink.com 1.10,2017-05-25 12:42:00,
2017-05-25 08:57:00,76.9,75.0,29.84,WSW,250,7.0,-999.0,92,-99.99,,,0.04,weatherlink.com 1.10,2017-05-25 12:57:00,
2017-05-25 09:12:00,77.6,75.0,29.85,SW,229,2.0,-999.0,91,-99.99,,,0.04,weatherlink.com 1.10,2017-05-25 13:12:00,
2017-05-25 09:27:00,79.0,76.0,29.85,West,269,6.0,-999.0,90,-99.99,,,0.04,weatherlink.com 1.10,2017-05-25 13:27:00,
2017-05-25 09:42:00,80.3,77.0,29.85,WSW,248,5.0,-999.0,88,-99.99,,,0.04,weatherlink.com 1.10,2017-05-25 13:42:00,
2017-05-25 09:57:00,80.6,77.0,29.85,SSW,209,10.0,-999.0,87,-99.99,,,0.04,weatherlink.com 1.10,2017-05-25 13:57:00,
2017-05-25 10:12:00,80.1,76.0,29.85,West,276,6.0,-999.0,88,-99.99,,,0.04,weatherlink.com 1.10,2017-05-25 14:12:00,
2017-05-25 10:28:00,80.2,77.0,29.84,SW,225,7.0,-999.0,89,-99.99,,,0.04,weatherlink.com 1.10,2017-05-25 14:28:00,
2017-05-25 10:42:00,78.4,76.0,29.85,WSW,242,9.0,-999.0,92,-99.99,,,0.22,weatherlink.com 1.10,2017-05-25 14:42:00,
2017-05-25 10:58:00,77.2,75.0,29.88,West,267,7.0,-999.0,94,-99.99,,,0.33,weatherlink.com 1.10,2017-05-25 14:58:00,
2017-05-25 11:13:00,76.2,75.0,29.89,WSW,257,9.0,-999.0,95,-99.99,,,0.87,weatherlink.com 1.10,2017-05-25 15:13:00,
2017-05-25 11:28:00,75.6,74.0,29.91,WSW,242,4.0,-999.0,95,-99.99,,,0.88,weatherlink.com 1.10,2017-05-25 15:28:00,
2017-05-25 11:43:00,75.1,74.0,29.90,WSW,248,7.0,-999.0,95,-99.99,,,0.88,weatherlink.com 1.10,2017-05-25 15:43:00,
2017-05-25 11:58:00,75.8,74.0,29.90,WSW,258,4.0,-999.0,95,-99.99,,,0.90,weatherlink.com 1.10,2017-05-25 15:58:00,
2017-05-25 12:13:00,76.4,75.0,29.89,West,279,5.0,-999.0,95,-99.99,,,0.90,weatherlink.com 1.10,2017-05-25 16:13:00,
2017-05-25 12:28:00,78.3,77.0,29.90,West,259,10.0,-999.0,94,-99.99,,,0.90,weatherlink.com 1.10,2017-05-25 16:28:00,
2017-05-25 12:43:00,80.0,77.0,29.89,West,265,9.0,-999.0,91,-99.99,,,0.90,weatherlink.com 1.10,2017-05-25 16:43:00,
2017-05-25 12:58:00,81.6,77.0,29.89,West,267,5.0,-999.0,87,-99.99,,,0.90,weatherlink.com 1.10,2017-05-25 16:58:00,
2017-05-25 13:28:00,81.9,77.0,29.89,SW,229,7.0,-999.0,85,-99.99,,,0.90,weatherlink.com 1.10,2017-05-25 17:28:00,
2017-05-25 14:18:00,82.0,77.0,29.89,WSW,252,3.0,-999.0,84,-99.99,,,0.90,weatherlink.com 1.10,2017-05-25 18:18:00,
2017-05-25 14:29:00,82.3,77.0,29.88,WNW,289,2.0,-999.0,83,-99.99,,,0.90,weatherlink.com 1.10,2017-05-25 18:29:00,
2017-05-25 15:40:00,83.3,77.0,29.88,NW,308,6.0,-999.0,80,-99.99,,,0.90,weatherlink.com 1.10,2017-05-25 19:40:00,
2017-05-25 16:32:00,82.5,75.0,29.88,NNW,336,0.0,-999.0,78,-99.99,,,0.90,weatherlink.com 1.10,2017-05-25 20:32:00,